www.pogodaiklimat.ru

Погода и климат >> Архив погоды >> Россия >> Ярославская область >> Рыбинск


АРХИВ ПОГОДЫ в Рыбинске

Время (UTC), дата Ветер
(напр.,м/с)
 
Видим.   Явления Облачность Т
(С)
Тd
(С)
f
(%)
Тe
(С)
Тes
(С)
Комфортность P
(гПа)
Po
(гПа)
Тmin
(С)
Tmax
(С)
R
(мм)
R24
(мм)
S
(см)
09 12.05 СВ 1 15 км 3/0
[Ci fib]
+21.2 +5.9 37 +22 +36 комфорт 1024.6 1012.2
12 12.05 С 2 16 км 4/0
[Ci fib]
+21.7 +6.4 37 +22 +32 комфорт 1024.7 1012.3
15 12.05 штиль 0 15 км 8/0
[Ci sp]
+19.5 +7.2 45 +20 +23 тепло 1025.1 1012.7 +22.5
18 12.05 штиль 0 11 км 8/0
[Ci sp]
+16.5 +6.9 53 +16 +16 тепло 1025.5 1012.9
21 12.05 штиль 0 10 км 8/0
[Ci sp]
+13.6 +9.2 75 +13 +13 тепло 1025.6 1012.9
00 13.05 З 1 10 км 10/0
[As op]
+13.1 +9.4 78 +13 +13 тепло 1026.3 1013.5
03 13.05 ЮВ 1 9000 м слаб. ливневой дождь 10/10 300 м
[Cb cap]
+14.0 +9.1 72 +14 +14 тепло 1026.2 1013.5 +12.8 0.0
06 13.05 штиль 0 10 км в посл. час ливневой дождь 10/10 300 м
[Sc diur, vesp]
+14.6 +12.2 86 +14 +14 тепло 1025.6 1012.9
09 13.05 СЗ 2 9000 м слаб. дождь 10/10 300 м
[Sc]
+13.5 +10.7 83 +13 +13 по сезону 1025.1 1012.4
12 13.05 С 2 10 км {дождь} 9/9 300 м
[Sc]
+16.1 +11.0 72 +16 +17 тепло 1024.5 1011.9
15 13.05 С 1 10 км 10/10 300 м
[Sc]
+16.3 +10.5 69 +17 +17 тепло 1023.1 1010.5 +16.7 2
18 13.05 С 2 12 км 8/8 300 м
[Sc]
+13.3 +10.2 81 +13 +13 тепло 1022.8 1010.2
21 13.05 С 2 10 км 8/8 300 м
[Sc]
+13.0 +10.4 84 +12 +12 тепло 1022.3 1009.5
00 14.05 СЗ 1 10 км 10/10 300 м
[Sc]
+12.8 +10.1 84 +13 +13 тепло 1021.7 1008.9
03 14.05 С 1 12 км {ливн. осадки} 8/8 300 м
[Sc]
+13.2 +10.4 83 +13 +14 тепло 1020.4 1007.6 +12.3 0.3
06 14.05 С 2 12 км {ливн. осадки} 10/10 300 м
[Sc]
+15.0 +10.9 76 +15 +15 тепло 1020.8 1008.2
09 14.05 СЗ 1 12 км 10/10 300 м
[Sc]
+15.5 +11.1 75 +16 +16 тепло 1020.7 1008.1
12 14.05 СЗ 1 13 км 10/10 300 м
[Sc]
+17.1 +11.1 68 +18 +18 тепло 1020.0 1007.6
15 14.05 СЗ 1 13 км 10/10 300 м
[Sc]
+16.6 +11.3 71 +17 +17 тепло 1019.2 1006.7 +18.0
18 14.05 СЗ 1 11 км 10/10 300 м
[Sc]
+14.6 +10.6 77 +15 +15 тепло 1018.9 1006.4
21 14.05 штиль 0 10 км 10/10 300 м
[Sc]
+13.8 +11.5 86 +13 +13 тепло 1018.5 1005.8
00 15.05 СЗ 1 10 км 10/10 300 м
[Sc]
+12.8 +10.2 84 +13 +13 тепло 1018.6 1005.9
03 15.05 СЗ 3 13 км 4/0
[Ci fib]
+11.3 +7.6 78 +10 +10 по сезону 1019.9 1007.1 +11.2
06 15.05 СЗ 3 13 км 4/0
[Ci fib]
+12.5 +7.4 71 +11 +17 по сезону 1020.7 1008.0
09 15.05 СЗ 4
{10}
13 км 3/0
[Ci fib]
+15.0 +8.1 63 +14 +23 тепло 1021.4 1008.7
12 15.05 С 5-11
{12}
15 км 4/0
[Ci fib]
+15.7 +7.2 57 +15 +20 по сезону 1021.4 1008.8
15 15.05 СЗ 6-12
{14}
14 км 8/0
[Ci sp]
+14.1 +3.6 49 +12 +13 по сезону 1021.4 1008.6 +16.0
18 15.05 С 3
{13}
10 км 8/0
[Ci sp]
+13.0 +3.0 51 +12 +12 по сезону 1022.3 1009.4
21 15.05 С 3 10 км ясно +10.1 +1.7 56 +8 +8 по сезону 1023.2 1010.3
00 16.05 С 2 10 км 6/0
[Ci fib]
+8.7 +1.4 60 +7 +7 по сезону 1023.6 1010.6
03 16.05 С 2 13 км 4/0
[Ci fib]
+9.0 +0.4 55 +8 +9 по сезону 1024.3 1011.4 +7.8
06 16.05 С 2 15 км ясно +13.1 +0.1 41 +13 +21 тепло 1025.2 1012.5
09 16.05 СЗ 3 10 км 3/3 600 м
[Cu hum]
+14.2 -1.1 35 +14 +22 тепло 1025.6 1012.9
12 16.05 СЗ 4-10
{11}
10 км 3/3 600 м
[Cu hum]
+14.5 -1.6 33 +14 +18 по сезону 1025.7 1013.0
15 16.05 С 5
{10}
10 км 3/3 300 м
[Cu med, cong]
+13.9 -0.2 38 +12 +13 по сезону 1025.3 1012.6 +14.8
18 16.05 штиль 0
{10}
10 км ясно +10.1 +1.7 56 +10 +10 по сезону 1026.1 1013.2
21 16.05 штиль 0 10 км ясно +5.5 +2.3 80 +5 +5 прохладно 1026.7 1013.6
00 17.05 штиль 0 10 км 3/0
[Ci fib]
+3.2 +1.4 88 +2 +2 прохладно 1026.9 1013.6
03 17.05 штиль 0 10 км 3/0
[Ci fib]
+7.4 +2.8 73 +7 +8 по сезону 1026.8 1013.8 +2.0
06 17.05 СЗ 1 14 км ясно +15.0 +0.4 37 +16 +25 тепло 1026.0 1013.3
09 17.05 С 1 10 км ясно +18.3 +0.9 31 +20 +36 опасность
простуды
1023.9 1011.4
12 17.05 С 2 10 км ясно +18.6 +1.1 31 +19 +30 тепло 1021.7 1009.2
15 17.05 СЗ 1 10 км ясно +18.3 +0.3 30 +19 +23 тепло 1020.4 1007.9 +19.3
18 17.05 З 1 10 км 3/3 300 м
[Sc]
+14.3 +4.3 51 +15 +15 тепло 1019.3 1006.7
21 17.05 СЗ 1 10 км 6/6 300 м
[Sc]
+12.1 +4.3 59 +12 +12 тепло 1019.8 1007.0
00 18.05 С 1 н/о н/о +9.5 +4.0 69 +9 +9 по сезону 1020.7 1007.8
03 18.05 С 2 10 км 3/0
[Ci fib]
+11.0 +2.4 55 +10 +11 по сезону 1021.6 1008.7 +8.7
06 18.05 С 3 10 км 4/0
[Ci fib]
+12.8 +0.5 43 +12 +18 по сезону 1021.4 1008.7
09 18.05 С 3 10 км 8/0
[Ci fib]
+14.2 +0.4 39 +14 +23 по сезону 1020.7 1008.0
12 18.05 С 2 10 км 3/3 300 м
[Cu med, cong Ci fib]
+16.7 +2.7 39 +17 +24 тепло 1018.5 1006.0
15 18.05 З 2 10 км 4/4 300 м
[Cu med, cong]
+18.1 +2.4 35 +19 +20 тепло 1015.5 1003.1 +18.9
18 18.05 С 2 10 км 3/3 300 м
[Cu med, cong]
+15.2 +4.5 49 +15 +15 тепло 1015.5 1002.9
21 18.05 С 1 10 км ясно +11.6 +2.9 55 +12 +12 тепло 1017.6 1004.8
00 19.05 С 1 10 км ясно +9.0 +2.1 62 +9 +9 по сезону 1018.2 1005.3
03 19.05 СВ 1 10 км ясно +9.1 +2.2 62 +9 +10 по сезону 1018.9 1006.1 +7.2
06 19.05 С 2 10 км ясно +11.3 +0.7 48 +11 +19 по сезону 1019.9 1007.0

 

Местоположение метеостанции Рыбинск (Ярославская область, Россия): широта 58.10 долгота 38.68 высота над уровнем моря 105 м.

В архиве по умолчанию представлена погода в Рыбинске за последнюю неделю. Архивные данные за месяц целиком и за предыдущие месяцы, начиная с января 2011 года, Вы можете получить, выбрав интересующий диапазон дат из раскрывающегося списка и нажав кнопку "Ввод!".


*Определитесь, кто Вы:
робот инопланетянин человек

Внимание! Время в таблицах - всемирное. Для получения местного времени необходимо прибавить поправку, которая равна 3 ч.

Смотрите также архив погоды в соседних городах и на ближайших метеорологических станциях:

Погода в Борке (Ярославская область, Россия) (26 км)
Погода в Мышкине (Ярославская область, Россия) (38 км)
Погода в Большом Селе (Ярославская область, Россия) (45 км)
Погода в Пошехонье (Ярославская область, Россия) (50 км)
Погода в Брейтово (Ярославская область, Россия) (53 км)
Погода в Тутаеве (Ярославская область, Россия) (55 км)
Погода в Угличе (Ярославская область, Россия) (70 км)
Погода в Данилове (Ярославская область, Россия) (89 км)
Погода в Ярославле-Музее (Ярославская область, Россия) (89 км)
Погода в Ярославле (Ярославская область, Россия) (89 км)

Пояснения к столбцам:

Ветер - указаны скорость ветра в м/с - средняя за 10 мин, порывы в срок и между сроками (в фигурных скобках) и направление, откуда дует ветер: С - северный, СВ - северо-восточный, В - восточный, ЮВ - юго-восточный, Ю - южный, ЮЗ - юго-западный, З - западный, СЗ - северо-западный.
Видимость - горизонтальная дальность видимости в метрах или километрах. При видимости от 1 до 10 км при отсутствии осадков обычно наблюдается дымка, при ухудшении видимости до 1 км и менее - туман. В сухую погоду видимость может ухудшаться дымом, пылью или мглою.
Явления - указаны атмосферные явления, наблюдавшиеся в срок или в последний час перед сроком; фигурными скобками обозначены явления, наблюдавшиеся между сроками (за 1-3 часа до срока); квадратными скобками обозначены град или гололедные отложения с указанием их диаметра в мм.
Облачность - указаны через наклонную черту общая и нижняя облачность в баллах и высота нижней границы облаков в метрах; квадратными скобками обозначены формы облаков: Ci - перистые, Cs - перисто-слоистые, Cc - перисто-кучевые, Ac - высококучевые, As - высокослоистые, Sc - слоисто-кучевые, Ns - слоисто-дождевые, Cu - кучевые, Cb - кучево-дождевые. Подробнее классификацию облаков см. в Атласе облаков (PDF).
T - Температура воздуха - температура, измеренная на высоте 2 м над землей.
Td - Температура точки росы - температура, при понижении до которой содержащийся в воздухе водяной пар достигнет насыщения.
f - Относительная влажность воздуха - влажноcть воздуха, измеренная на высоте 2 м над землей.
Te - Эффективная температура - температура, которую ощущает одетый по сезону человек в тени. Характеристика душности погоды. При расчете учитывается влияние влажности воздуха и скорости ветра на теплоощущения человека.
Tes - Эффективная температура на солнце - температура, которую ощущает человек, с поправкой на солнечный нагрев. Характеристика знойности погоды. Зависит от высоты солнца над горизонтом, облачности и скорости ветра. Ночью, в пасмурную погоду, а также при ветре 12 м/с и более поправка равна нулю.
P - Атмосферное давление - приведенное к уровню моря атмосферное давление.
Po - Атмосферное давление - измеренное на уровне метеостанции атмосферное давление.
Tmin - Минимальная температура - минимум температуры воздуха на высоте 2 м над землей.
Tmax - Максимальная температура - максимум температуры воздуха на высоте 2 м над землей.
R - Количество осадков - Количество выпавших осадков за период времени, мм. При наведении курсора мыши на число - период времени, за который выпало указанное количество осадков.
R24 - Количество осадков - Количество выпавших осадков за 24 часа, мм.
S - Снежный покров - Высота снежного покрова, см. При наведении курсора мыши на число - состояние снежного покрова и степень покрытия местности в баллах.